#timestamp,LO_Frequency,Hit,StdDev 
1503529215.9,286047002.6,N,1.3
1503529235.7,286047002.3,N,1.3
1503529255.6,286047002.6,N,1.3
1503529275.4,286047001.9,N,1.3
1503529295.2,286047001.4,N,1.2
1503529315.1,286047002.2,N,1.2
1503529316.0,286047002.2,N,1.2
1503529335.8,286047002.0,N,1.2
1503529355.6,286047001.8,N,1.2
1503529375.5,286047001.3,N,1.2
1503529395.3,286047002.3,N,1.2
1503529415.2,286047001.9,N,1.2
1503529435.9,286047004.2,Y,0.0
1503529455.7,286047002.2,P,0.5
1503529475.6,286047002.0,P,0.4
1503529495.4,286047002.8,P,0.6
1503529515.3,286047000.1,N,0.9
1503529535.1,286046999.9,N,1.1
1503529536.0,286046999.9,N,1.1
1503529555.8,286046999.7,N,1.2
1503529575.7,286047002.8,N,1.2
1503529595.5,286047002.8,N,1.3
1503529615.3,286046999.9,N,1.3
1503529635.2,286046998.2,N,1.5
1503529655.0,286047001.1,N,1.4
1503529655.9,286047001.1,N,1.4
1503529675.8,286046998.1,N,1.5
1503529695.6,286047001.1,N,1.5
1503529715.4,286047000.7,N,1.4
1503529735.3,286047001.0,N,1.4
1503529755.1,286047000.3,N,1.3
1503529775.9,286047000.2,N,1.3
1503529795.7,286047002.4,N,1.3
1503529815.5,286047002.4,N,1.3
1503529835.4,286047002.3,N,1.3
1503529855.2,286047002.8,N,1.4
1503529875.1,286047002.1,N,1.4
1503529876.0,286047002.1,N,1.3
1503529895.8,286047002.8,N,1.4
1503529915.6,286046999.9,N,1.3
1503529935.5,286047002.7,N,1.4
1503529955.3,286047000.1,N,1.3
1503529975.1,286047002.4,N,1.4
1503529995.9,286046999.8,N,1.4
1503530015.7,286046999.8,N,1.4
1503530035.6,286047002.5,N,1.4
1503530055.4,286047002.4,N,1.4
1503530075.2,286047002.6,N,1.4
1503530095.1,286047001.5,N,1.4
1503530096.0,286047001.5,N,1.3
1503530115.8,286047002.1,N,1.3
1503530135.7,286047002.6,N,1.3
1503530155.5,286047000.2,N,1.3
1503530175.3,286046999.7,N,1.2
1503530195.2,286047002.7,N,1.2
1503530215.0,286046999.7,N,1.3
1503530215.9,286046999.7,N,1.2
1503530235.8,286047000.4,N,1.2
1503530255.6,286046999.8,N,1.2
1503530275.4,286047000.7,N,1.2
1503530295.3,286046999.9,N,1.2
1503530315.1,286046999.7,N,1.2
1503530335.8,286046999.7,N,1.3
1503530355.7,286046999.9,N,1.3
1503530375.5,286047002.4,N,1.3
1503530395.4,286047002.1,N,1.2
1503530415.2,286047002.5,N,1.2
1503530435.0,286047001.1,N,1.2
1503530435.9,286047001.1,N,1.2
1503530455.8,286047000.8,N,1.2
1503530475.6,286046998.2,N,1.2
1503530495.5,286046998.8,N,1.3
1503530515.3,286046999.4,N,1.3
1503530535.1,286046997.0,N,1.4
1503530555.9,286046997.7,N,1.5
1503530575.7,286046996.6,N,1.7
1503530595.6,286046997.4,N,1.7
1503530615.4,286046997.8,N,1.7
1503530635.2,286046995.2,N,1.9
1503530655.1,286046995.6,N,2.0
1503530656.0,286046995.6,N,2.1
1503530675.8,286046994.9,N,2.2
1503530695.7,286046995.3,N,2.3
1503530715.5,286046998.0,N,2.3
1503530735.3,286046995.3,N,2.2
1503530755.2,286046996.4,N,2.3
1503530775.0,286046993.9,N,2.4
1503530775.9,286046993.9,N,2.5
1503530795.7,286046986.3,Y,0.0
1503530815.6,286046996.2,P,1.0
1503530835.4,286046996.2,P,1.0
1503530855.3,286046993.9,P,1.5
1503530875.1,286046993.4,Y,0.0
1503530895.8,286046999.0,P,1.4
1503530915.7,286046998.9,N,1.3
1503530935.5,286046999.4,N,1.3
1503530955.4,286046999.3,N,1.2
1503530975.2,286046996.5,N,1.4
1503530995.0,286046999.6,N,1.3
1503530995.9,286046999.6,N,1.3
1503531015.8,286046998.7,N,1.2
1503531035.6,286047000.7,N,1.3
1503531055.5,286047000.3,N,1.4
1503531075.3,286046998.2,N,1.3
1503531095.1,286046999.0,N,1.3
1503531115.9,286046999.5,N,1.2
1503531135.7,286046998.4,N,1.2
1503531155.5,286046998.9,N,1.2
1503531175.4,286046999.1,N,1.1
1503531195.2,286046999.3,N,1.1
1503531215.1,286046999.0,N,1.1
1503531216.0,286046999.0,N,1.0
1503531235.8,286046997.2,N,1.1
1503531255.6,286046997.5,N,1.1
1503531275.5,286046997.9,N,1.1
1503531295.3,286046997.7,N,1.1
1503531315.2,286046996.6,Y,0.0
1503531335.9,286046996.5,P,1.1
1503531355.7,286046999.2,N,1.2
1503531375.6,286046997.0,N,1.1
1503531395.4,286046997.7,N,1.0
1503531415.2,286046997.8,N,0.9
1503531435.1,286046997.6,N,0.9
1503531436.0,286046997.6,N,0.8
1503531455.8,286046997.6,Y,0.0
1503531475.7,286046999.2,P,0.7
1503531495.5,286046998.1,N,0.6
1503531515.3,286047000.8,N,1.2
1503531535.2,286047000.7,N,1.3
1503531555.0,286046998.9,N,1.2
1503531555.9,286046998.9,N,1.1
1503531575.8,286046999.3,N,1.0
1503531595.6,286046998.3,N,1.0
1503531615.4,286046998.6,N,1.0
1503531635.3,286046998.8,N,0.9
1503531655.1,286046999.4,N,0.9
1503531675.9,286046998.1,N,0.9
1503531695.7,286046998.1,N,0.9
1503531715.5,286046996.6,Y,0.0
1503531735.4,286046997.0,P,1.0
1503531755.2,286046999.1,N,1.0
1503531775.0,286046999.2,N,0.9
1503531775.9,286046999.2,N,0.8
1503531795.8,286046999.1,N,0.8
1503531815.6,286046998.2,N,0.8
1503531835.5,286047000.6,N,1.0
1503531855.3,286046999.1,N,0.9
1503531875.1,286046998.7,N,0.9
1503531895.9,286046998.1,N,0.8
1503531915.7,286046998.7,N,0.8
1503531935.6,286046998.2,N,0.8
1503531955.4,286046999.3,N,0.8
1503531975.2,286046998.8,N,0.8
1503531995.1,286046998.3,N,0.7
1503531996.0,286046998.3,N,0.7
1503532015.8,286046998.8,N,0.7
1503532035.6,286046998.8,N,0.7
1503532055.5,286047001.2,N,0.9
1503532075.3,286046998.7,N,0.8
1503532095.2,286047001.0,N,0.9
1503532115.9,286047001.1,N,1.0
1503532135.7,286047000.7,N,1.0
1503532155.6,286047000.4,N,1.0
1503532175.4,286047000.0,N,1.0
1503532195.3,286046999.9,N,1.0
1503532215.1,286047000.0,N,1.0
1503532216.0,286047000.0,N,1.0
1503532235.8,286047002.6,N,1.2
1503532255.7,286047002.4,N,1.3
1503532275.5,286047011.9,Y,0.0
1503532295.4,286046999.8,P,0.1
1503532315.2,286047002.1,P,1.2
1503532335.0,286047002.5,N,1.3
1503532335.9,286047002.5,N,1.3
1503532355.8,286047001.9,N,1.2
1503532375.6,286047001.9,N,1.2
1503532395.5,286047002.5,N,1.1
1503532415.3,286047001.7,N,1.1
1503532435.1,286047001.7,N,1.0
1503532455.9,286047004.2,Y,0.0
1503532475.7,286047002.3,P,0.3
1503532495.6,286047001.5,P,0.4
1503532515.4,286047002.1,P,0.3
1503532535.2,286047001.8,Y,0.0
1503532555.1,286047002.8,P,0.5
1503532556.0,286047002.8,P,0.4
1503532575.8,286047002.1,P,0.4
1503532595.7,286047001.9,Y,0.0
1503532615.5,286046998.1,P,2.1
1503532635.3,286046998.8,N,1.9
1503532655.2,286047000.9,N,1.7
1503532675.0,286046998.6,N,1.6
1503532675.9,286046998.6,N,1.5
1503532695.8,286046998.1,N,1.5
1503532715.6,286046998.4,N,1.5
1503532735.4,286047001.2,N,1.5
1503532755.3,286047000.7,N,1.5
1503532775.1,286047000.9,N,1.5
1503532795.9,286047000.9,N,1.4
